Time,TemperatureF,DewpointF,PressureIn,WindDirection,WindDirectionDegrees,WindSpeedMPH,WindSpeedGustMPH,Humidity,HourlyPrecipIn,Conditions,Clouds,dailyrainin,SoftwareType,DateUTC
2013-01-29 00:04:00,32.3,26.5,30.07,North,1,0.0,1.0,79,0.04,,,1.23,Wunderground v.1.15,2013-01-29 08:04:00,
2013-01-29 00:09:00,32.4,26.6,30.07,North,5,0.0,1.0,79,0.04,,,1.23,Wunderground v.1.15,2013-01-29 08:09:00,
2013-01-29 00:19:00,32.4,26.6,30.07,NNE,26,0.0,1.0,79,0.04,,,1.24,Wunderground v.1.15,2013-01-29 08:19:00,
2013-01-29 00:24:00,32.4,26.6,30.07,NNE,26,0.0,1.0,79,0.04,,,1.24,Wunderground v.1.15,2013-01-29 08:24:00,
2013-01-29 00:29:00,32.4,26.6,30.07,NNW,346,0.0,3.0,79,0.04,,,0.00,Wunderground v.1.15,2013-01-29 08:29:00,
2013-01-29 00:34:00,32.4,26.6,30.08,NNE,31,1.0,3.0,79,0.04,,,0.00,Wunderground v.1.15,2013-01-29 08:34:00,
2013-01-29 00:39:00,32.4,26.6,30.08,NNE,30,1.0,1.0,79,0.07,,,0.01,Wunderground v.1.15,2013-01-29 08:39:00,
2013-01-29 00:44:00,32.4,26.6,30.08,NE,49,0.0,1.0,79,0.07,,,0.02,Wunderground v.1.15,2013-01-29 08:44:00,
2013-01-29 00:49:00,32.3,26.5,30.08,NNE,12,0.0,1.0,79,0.07,,,0.02,Wunderground v.1.15,2013-01-29 08:49:00,
2013-01-29 00:54:00,32.6,26.8,30.08,North,349,0.0,1.0,79,0.06,,,0.03,Wunderground v.1.15,2013-01-29 08:54:00,
2013-01-29 00:59:00,32.6,26.8,30.08,NNW,338,1.0,1.0,79,0.06,,,0.03,Wunderground v.1.15,2013-01-29 08:59:00,
2013-01-29 01:04:00,32.5,26.7,30.08,North,359,1.0,1.0,79,0.06,,,0.03,Wunderground v.1.15,2013-01-29 09:04:00,
2013-01-29 01:09:00,32.4,26.6,30.08,NNE,16,0.0,1.0,79,0.05,,,0.04,Wunderground v.1.15,2013-01-29 09:09:00,
2013-01-29 01:14:00,32.4,26.6,30.08,NNW,333,0.0,1.0,79,0.05,,,0.04,Wunderground v.1.15,2013-01-29 09:14:00,
2013-01-29 01:19:00,32.4,26.6,30.08,NNW,333,1.0,1.0,79,0.05,,,0.04,Wunderground v.1.15,2013-01-29 09:19:00,
2013-01-29 01:24:00,32.4,26.6,30.09,NNW,336,0.0,1.0,79,0.04,,,0.05,Wunderground v.1.15,2013-01-29 09:24:00,
2013-01-29 01:29:00,32.4,26.6,30.08,NNW,336,0.0,1.0,79,0.04,,,0.05,Wunderground v.1.15,2013-01-29 09:29:00,
2013-01-29 01:34:00,32.4,26.6,30.09,NNW,345,0.0,1.0,79,0.04,,,0.05,Wunderground v.1.15,2013-01-29 09:34:00,
2013-01-29 01:39:00,32.4,26.6,30.09,NNW,346,0.0,1.0,79,0.00,,,0.06,Wunderground v.1.15,2013-01-29 09:39:00,
2013-01-29 01:44:00,32.3,26.5,30.09,NNW,347,0.0,1.0,79,0.00,,,0.06,Wunderground v.1.15,2013-01-29 09:44:00,
2013-01-29 01:49:00,32.4,26.6,30.10,NNW,343,0.0,1.0,79,0.00,,,0.06,Wunderground v.1.15,2013-01-29 09:49:00,
2013-01-29 01:54:00,32.4,26.6,30.10,NNW,346,0.0,1.0,79,0.00,,,0.06,Wunderground v.1.15,2013-01-29 09:54:00,
2013-01-29 02:04:00,32.4,26.6,30.10,NNW,340,1.0,1.0,79,0.00,,,0.07,Wunderground v.1.15,2013-01-29 10:04:00,
2013-01-29 02:09:00,32.5,26.7,30.10,NNE,29,1.0,1.0,79,0.00,,,0.07,Wunderground v.1.15,2013-01-29 10:09:00,
2013-01-29 02:14:00,32.4,26.6,30.11,North,353,1.0,1.0,79,0.00,,,0.07,Wunderground v.1.15,2013-01-29 10:14:00,
2013-01-29 02:19:00,32.4,26.6,30.10,North,352,0.0,1.0,79,0.00,,,0.08,Wunderground v.1.15,2013-01-29 10:19:00,
2013-01-29 02:29:00,32.4,26.6,30.11,NNW,335,0.0,1.0,79,0.00,,,0.08,Wunderground v.1.15,2013-01-29 10:29:00,
2013-01-29 02:34:00,32.5,26.7,30.11,North,11,0.0,1.0,79,0.00,,,0.08,Wunderground v.1.15,2013-01-29 10:34:00,
2013-01-29 02:39:00,32.5,26.7,30.11,North,1,1.0,1.0,79,0.00,,,0.09,Wunderground v.1.15,2013-01-29 10:39:00,
2013-01-29 02:44:00,32.5,26.7,30.11,North,1,1.0,1.0,79,0.00,,,0.09,Wunderground v.1.15,2013-01-29 10:44:00,
2013-01-29 02:49:00,32.4,26.6,30.11,North,359,1.0,1.0,79,0.00,,,0.09,Wunderground v.1.15,2013-01-29 10:49:00,
2013-01-29 02:59:00,32.5,26.7,30.12,North,358,0.0,1.0,79,0.00,,,0.10,Wunderground v.1.15,2013-01-29 10:59:00,
2013-01-29 03:04:00,32.5,26.7,30.13,NNW,346,1.0,1.0,79,0.00,,,0.10,Wunderground v.1.15,2013-01-29 11:04:00,
2013-01-29 03:09:00,32.5,26.7,30.13,NNE,28,1.0,1.0,79,0.00,,,0.10,Wunderground v.1.15,2013-01-29 11:09:00,
2013-01-29 03:14:00,32.4,26.6,30.13,NNW,348,1.0,1.0,79,0.00,,,0.10,Wunderground v.1.15,2013-01-29 11:14:00,
2013-01-29 03:19:00,32.5,26.7,30.13,North,349,1.0,1.0,79,0.00,,,0.11,Wunderground v.1.15,2013-01-29 11:19:00,
2013-01-29 03:24:00,32.4,26.6,30.13,North,349,0.0,1.0,79,0.00,,,0.11,Wunderground v.1.15,2013-01-29 11:24:00,
2013-01-29 03:29:00,32.5,26.7,30.13,NNW,343,0.0,1.0,79,0.00,,,0.11,Wunderground v.1.15,2013-01-29 11:29:00,
2013-01-29 03:34:00,32.5,26.7,30.14,NNW,343,0.0,1.0,79,0.00,,,0.11,Wunderground v.1.15,2013-01-29 11:34:00,
2013-01-29 03:44:00,32.5,26.7,30.14,North,359,0.0,1.0,79,0.00,,,0.12,Wunderground v.1.15,2013-01-29 11:44:00,
2013-01-29 03:49:00,32.5,26.7,30.14,North,360,0.0,1.0,79,0.00,,,0.12,Wunderground v.1.15,2013-01-29 11:49:00,
2013-01-29 03:54:00,32.6,26.8,30.14,North,359,0.0,1.0,79,0.00,,,0.12,Wunderground v.1.15,2013-01-29 11:54:00,
2013-01-29 03:59:00,32.6,26.8,30.14,North,359,1.0,1.0,79,0.04,,,0.13,Wunderground v.1.15,2013-01-29 11:59:00,
2013-01-29 04:04:00,32.6,26.8,30.15,NNE,23,1.0,1.0,79,0.04,,,0.13,Wunderground v.1.15,2013-01-29 12:04:00,
2013-01-29 04:09:00,32.7,26.9,30.15,NNE,14,1.0,1.0,79,0.04,,,0.13,Wunderground v.1.15,2013-01-29 12:09:00,
2013-01-29 04:14:00,32.7,26.9,30.14,NNE,15,1.0,1.0,79,0.04,,,0.14,Wunderground v.1.15,2013-01-29 12:14:00,
2013-01-29 04:19:00,32.7,26.9,30.14,NNE,15,0.0,1.0,79,0.04,,,0.14,Wunderground v.1.15,2013-01-29 12:19:00,
2013-01-29 04:29:00,32.5,26.7,30.15,NNE,15,0.0,1.0,79,0.05,,,0.15,Wunderground v.1.15,2013-01-29 12:29:00,
2013-01-29 04:34:00,32.5,26.7,30.15,NNE,14,0.0,1.0,79,0.05,,,0.15,Wunderground v.1.15,2013-01-29 12:34:00,
2013-01-29 04:39:00,32.5,26.7,30.15,NNE,14,0.0,1.0,79,0.04,,,0.16,Wunderground v.1.15,2013-01-29 12:39:00,
2013-01-29 04:44:00,32.5,26.7,30.15,North,5,1.0,1.0,79,0.04,,,0.16,Wunderground v.1.15,2013-01-29 12:44:00,
2013-01-29 04:49:00,32.5,26.7,30.16,North,1,1.0,1.0,79,0.04,,,0.16,Wunderground v.1.15,2013-01-29 12:49:00,
2013-01-29 04:54:00,32.5,26.7,30.16,North,1,1.0,1.0,79,0.04,,,0.17,Wunderground v.1.15,2013-01-29 12:54:00,
2013-01-29 04:59:00,32.6,26.8,30.16,North,1,0.0,1.0,79,0.04,,,0.17,Wunderground v.1.15,2013-01-29 12:59:00,
2013-01-29 05:04:00,32.5,26.7,30.16,North,360,1.0,1.0,79,0.04,,,0.17,Wunderground v.1.15,2013-01-29 13:04:00,
2013-01-29 05:09:00,32.6,26.8,30.16,North,360,1.0,1.0,79,0.04,,,0.18,Wunderground v.1.15,2013-01-29 13:09:00,
2013-01-29 05:14:00,32.7,26.9,30.17,NNE,15,1.0,1.0,79,0.04,,,0.18,Wunderground v.1.15,2013-01-29 13:14:00,
2013-01-29 05:19:00,32.6,26.8,30.17,North,350,1.0,1.0,79,0.04,,,0.19,Wunderground v.1.15,2013-01-29 13:19:00,
2013-01-29 05:24:00,32.7,26.9,30.17,NNE,19,1.0,1.0,79,0.04,,,0.19,Wunderground v.1.15,2013-01-29 13:24:00,
2013-01-29 05:29:00,32.8,27.0,30.17,NNE,20,0.0,1.0,79,0.04,,,0.19,Wunderground v.1.15,2013-01-29 13:29:00,
2013-01-29 05:34:00,32.7,26.9,30.17,NNE,18,0.0,1.0,79,0.04,,,0.20,Wunderground v.1.15,2013-01-29 13:34:00,
2013-01-29 05:39:00,32.7,26.9,30.17,NNE,19,0.0,1.0,79,0.04,,,0.20,Wunderground v.1.15,2013-01-29 13:39:00,
2013-01-29 05:44:00,32.8,27.3,30.17,NNE,18,0.0,1.0,80,0.04,,,0.20,Wunderground v.1.15,2013-01-29 13:44:00,
2013-01-29 05:49:00,32.7,26.9,30.17,NNE,16,0.0,1.0,79,0.04,,,0.20,Wunderground v.1.15,2013-01-29 13:49:00,
2013-01-29 05:54:00,32.7,26.9,30.18,North,352,1.0,1.0,79,0.00,,,0.21,Wunderground v.1.15,2013-01-29 13:54:00,
2013-01-29 05:59:00,32.7,26.9,30.18,North,352,1.0,1.0,79,0.00,,,0.21,Wunderground v.1.15,2013-01-29 13:59:00,
2013-01-29 06:04:00,32.7,27.2,30.18,NNW,343,0.0,1.0,80,0.00,,,0.21,Wunderground v.1.15,2013-01-29 14:04:00,
2013-01-29 06:09:00,32.9,27.4,30.18,NNW,343,0.0,1.0,80,0.00,,,0.21,Wunderground v.1.15,2013-01-29 14:09:00,
2013-01-29 06:14:00,33.0,27.5,30.18,NNW,343,1.0,1.0,80,0.00,,,0.22,Wunderground v.1.15,2013-01-29 14:14:00,
2013-01-29 06:19:00,32.9,27.1,30.18,NE,38,1.0,2.0,79,0.00,,,0.22,Wunderground v.1.15,2013-01-29 14:19:00,
2013-01-29 06:24:00,32.9,27.1,30.18,NW,315,1.0,2.0,79,0.05,,,0.22,Wunderground v.1.15,2013-01-29 14:24:00,
2013-01-29 06:29:00,33.0,27.5,30.18,NNE,30,1.0,1.0,80,0.05,,,0.23,Wunderground v.1.15,2013-01-29 14:29:00,
2013-01-29 06:34:00,32.9,27.1,30.18,NNE,30,0.0,1.0,79,0.08,,,0.24,Wunderground v.1.15,2013-01-29 14:34:00,
2013-01-29 06:39:00,32.8,27.3,30.19,North,349,0.0,1.0,80,0.08,,,0.24,Wunderground v.1.15,2013-01-29 14:39:00,
2013-01-29 06:44:00,32.9,27.4,30.18,NNE,15,1.0,1.0,80,0.07,,,0.25,Wunderground v.1.15,2013-01-29 14:44:00,
2013-01-29 06:49:00,33.0,27.5,30.18,NNE,15,0.0,1.0,80,0.07,,,0.25,Wunderground v.1.15,2013-01-29 14:49:00,
2013-01-29 06:54:00,32.9,27.4,30.19,NNE,15,0.0,1.0,80,0.05,,,0.26,Wunderground v.1.15,2013-01-29 14:54:00,
2013-01-29 06:59:00,32.9,27.4,30.19,NNE,14,0.0,1.0,80,0.05,,,0.26,Wunderground v.1.15,2013-01-29 14:59:00,
2013-01-29 07:04:00,32.9,27.4,30.19,NNE,15,0.0,1.0,80,0.05,,,0.26,Wunderground v.1.15,2013-01-29 15:04:00,
2013-01-29 07:09:00,32.8,27.3,30.20,NNE,14,0.0,1.0,80,0.04,,,0.26,Wunderground v.1.15,2013-01-29 15:09:00,
2013-01-29 07:14:00,32.8,27.3,30.20,NNE,15,0.0,1.0,80,0.04,,,0.27,Wunderground v.1.15,2013-01-29 15:14:00,
2013-01-29 07:19:00,32.8,27.3,30.20,NNE,15,0.0,1.0,80,0.04,,,0.27,Wunderground v.1.15,2013-01-29 15:19:00,
2013-01-29 07:24:00,33.0,27.5,30.20,NNE,15,0.0,1.0,80,0.04,,,0.27,Wunderground v.1.15,2013-01-29 15:24:00,
2013-01-29 07:29:00,33.0,27.5,30.20,NNE,15,0.0,1.0,80,0.00,,,0.27,Wunderground v.1.15,2013-01-29 15:29:00,
2013-01-29 07:34:00,32.9,27.4,30.20,NNE,15,0.0,1.0,80,0.00,,,0.28,Wunderground v.1.15,2013-01-29 15:34:00,
2013-01-29 07:39:00,32.9,27.4,30.20,NNE,15,0.0,1.0,80,0.00,,,0.28,Wunderground v.1.15,2013-01-29 15:39:00,
2013-01-29 07:44:00,32.9,27.4,30.20,NNE,14,0.0,1.0,80,0.00,,,0.28,Wunderground v.1.15,2013-01-29 15:44:00,
2013-01-29 07:54:00,33.1,27.6,30.21,NNE,15,0.0,1.0,80,0.04,,,0.29,Wunderground v.1.15,2013-01-29 15:54:00,
2013-01-29 07:59:00,33.1,27.6,30.21,NNE,14,1.0,1.0,80,0.05,,,0.30,Wunderground v.1.15,2013-01-29 15:59:00,
2013-01-29 08:04:00,33.2,27.7,30.21,NNE,14,0.0,1.0,80,0.05,,,0.30,Wunderground v.1.15,2013-01-29 16:04:00,
2013-01-29 08:09:00,33.3,27.8,30.22,NNE,14,0.0,1.0,80,0.05,,,0.30,Wunderground v.1.15,2013-01-29 16:09:00,
2013-01-29 08:14:00,33.2,27.7,30.22,NNE,15,0.0,1.0,80,0.05,,,0.31,Wunderground v.1.15,2013-01-29 16:14:00,
2013-01-29 08:19:00,34.0,28.5,30.22,NNE,13,1.0,1.0,80,0.05,,,0.31,Wunderground v.1.15,2013-01-29 16:19:00,
2013-01-29 08:24:00,34.3,28.8,30.22,NNE,13,1.0,1.0,80,0.05,,,0.32,Wunderground v.1.15,2013-01-29 16:24:00,
2013-01-29 08:29:00,34.6,29.1,30.23,NE,46,1.0,1.0,80,0.05,,,0.32,Wunderground v.1.15,2013-01-29 16:29:00,
2013-01-29 08:34:00,34.8,29.3,30.23,NE,34,1.0,1.0,80,0.07,,,0.33,Wunderground v.1.15,2013-01-29 16:34:00,
2013-01-29 08:39:00,34.7,28.9,30.23,NE,34,0.0,1.0,79,0.07,,,0.33,Wunderground v.1.15,2013-01-29 16:39:00,
2013-01-29 08:44:00,34.9,29.0,30.23,NE,34,0.0,1.0,79,0.07,,,0.34,Wunderground v.1.15,2013-01-29 16:44:00,
2013-01-29 08:49:00,35.5,29.6,30.23,NE,34,0.0,1.0,79,0.06,,,0.34,Wunderground v.1.15,2013-01-29 16:49:00,
2013-01-29 08:54:00,35.6,29.7,30.23,NE,34,0.0,1.0,79,0.06,,,0.35,Wunderground v.1.15,2013-01-29 16:54:00,
2013-01-29 09:04:00,35.3,29.4,30.23,NE,41,1.0,1.0,79,0.07,,,0.36,Wunderground v.1.15,2013-01-29 17:04:00,
2013-01-29 09:09:00,34.9,29.0,30.24,NE,41,1.0,1.0,79,0.09,,,0.37,Wunderground v.1.15,2013-01-29 17:09:00,
2013-01-29 09:14:00,35.1,29.2,30.24,NE,41,0.0,1.0,79,0.07,,,0.38,Wunderground v.1.15,2013-01-29 17:14:00,
2013-01-29 09:19:00,35.5,29.6,30.24,NE,41,0.0,1.0,79,0.07,,,0.38,Wunderground v.1.15,2013-01-29 17:19:00,
2013-01-29 09:29:00,35.3,29.4,30.25,NNE,31,1.0,1.0,79,0.07,,,0.39,Wunderground v.1.15,2013-01-29 17:29:00,
2013-01-29 09:34:00,35.1,29.2,30.25,NNE,31,0.0,1.0,79,0.07,,,0.40,Wunderground v.1.15,2013-01-29 17:34:00,
2013-01-29 09:39:00,35.1,29.2,30.25,NNE,30,0.0,1.0,79,0.07,,,0.40,Wunderground v.1.15,2013-01-29 17:39:00,
2013-01-29 09:44:00,35.6,29.7,30.26,NE,48,1.0,1.0,79,0.07,,,0.41,Wunderground v.1.15,2013-01-29 17:44:00,
2013-01-29 09:49:00,35.5,29.6,30.26,NE,49,1.0,1.0,79,0.08,,,0.42,Wunderground v.1.15,2013-01-29 17:49:00,
2013-01-29 09:54:00,35.5,29.6,30.26,NE,49,0.0,1.0,79,0.08,,,0.42,Wunderground v.1.15,2013-01-29 17:54:00,
2013-01-29 09:59:00,35.9,30.0,30.26,NE,49,0.0,1.0,79,0.08,,,0.43,Wunderground v.1.15,2013-01-29 17:59:00,
2013-01-29 10:04:00,36.1,30.2,30.27,NE,49,0.0,1.0,79,0.07,,,0.44,Wunderground v.1.15,2013-01-29 18:04:00,
2013-01-29 10:09:00,35.7,29.8,30.27,NE,49,0.0,1.0,79,0.07,,,0.44,Wunderground v.1.15,2013-01-29 18:09:00,
2013-01-29 10:14:00,35.4,29.5,30.28,NE,49,0.0,1.0,79,0.08,,,0.45,Wunderground v.1.15,2013-01-29 18:14:00,
2013-01-29 10:19:00,35.1,29.2,30.27,NE,49,0.0,1.0,79,0.07,,,0.45,Wunderground v.1.15,2013-01-29 18:19:00,
2013-01-29 10:24:00,34.9,29.0,30.27,NE,49,0.0,1.0,79,0.06,,,0.46,Wunderground v.1.15,2013-01-29 18:24:00,
2013-01-29 10:29:00,35.1,29.2,30.28,NE,49,0.0,1.0,79,0.06,,,0.46,Wunderground v.1.15,2013-01-29 18:29:00,
2013-01-29 10:34:00,35.5,29.6,30.28,NE,47,0.0,1.0,79,0.07,,,0.47,Wunderground v.1.15,2013-01-29 18:34:00,
2013-01-29 10:44:00,35.8,29.9,30.28,WNW,303,1.0,1.0,79,0.10,,,0.49,Wunderground v.1.15,2013-01-29 18:44:00,
2013-01-29 10:49:00,36.0,30.1,30.28,ENE,66,0.0,1.0,79,0.10,,,0.49,Wunderground v.1.15,2013-01-29 18:49:00,
2013-01-29 10:54:00,35.9,30.0,30.28,NW,316,0.0,1.0,79,0.10,,,0.50,Wunderground v.1.15,2013-01-29 18:54:00,
2013-01-29 11:04:00,36.1,30.2,30.28,NNW,343,0.0,1.0,79,0.09,,,0.52,Wunderground v.1.15,2013-01-29 19:04:00,
2013-01-29 11:09:00,36.3,30.4,30.28,NNW,343,0.0,1.0,79,0.09,,,0.52,Wunderground v.1.15,2013-01-29 19:09:00,
2013-01-29 11:14:00,36.1,30.2,30.28,North,11,0.0,1.0,79,0.08,,,0.53,Wunderground v.1.15,2013-01-29 19:14:00,
2013-01-29 11:15:00,37.4,31.5,30.29,NNE,23,1.0,-999.0,79,0.10,,,0.61,Wunderground v.1.15,2013-01-29 19:15:00,
2013-01-29 11:19:00,36.3,30.4,30.29,NE,42,0.0,1.0,79,0.09,,,0.54,Wunderground v.1.15,2013-01-29 19:19:00,
2013-01-29 11:20:00,37.4,31.5,30.29,NNE,23,1.0,-999.0,79,0.10,,,0.61,Wunderground v.1.15,2013-01-29 19:20:00,
2013-01-29 11:24:00,36.8,30.9,30.29,NE,42,0.0,1.0,79,0.09,,,0.55,Wunderground v.1.15,2013-01-29 19:24:00,
2013-01-29 11:25:00,37.4,31.5,30.29,NNE,23,1.0,-999.0,79,0.10,,,0.61,Wunderground v.1.15,2013-01-29 19:25:00,
2013-01-29 11:34:00,36.7,30.8,30.29,NNE,27,1.0,1.0,79,0.09,,,0.56,Wunderground v.1.15,2013-01-29 19:34:00,
2013-01-29 11:39:00,37.2,31.3,30.29,NW,316,1.0,2.0,79,0.11,,,0.57,Wunderground v.1.15,2013-01-29 19:39:00,
2013-01-29 11:44:00,37.6,31.7,30.29,NNE,13,1.0,2.0,79,0.15,,,0.58,Wunderground v.1.15,2013-01-29 19:44:00,
2013-01-29 11:49:00,37.3,31.4,30.29,NE,40,1.0,1.0,79,0.13,,,0.60,Wunderground v.1.15,2013-01-29 19:49:00,
2013-01-29 11:54:00,37.6,31.7,30.29,NNE,13,1.0,1.0,79,0.11,,,0.60,Wunderground v.1.15,2013-01-29 19:54:00,
2013-01-29 12:15:00,37.1,31.2,30.30,SE,130,0.0,0.0,79,0.08,,,0.64,Wunderground v.1.15,2013-01-29 20:15:00,
2013-01-29 12:19:00,37.2,31.3,30.30,SE,130,0.0,0.0,79,0.08,,,0.64,Wunderground v.1.15,2013-01-29 20:19:00,
2013-01-29 12:24:00,36.9,31.0,30.30,SSE,158,0.0,1.0,79,0.08,,,0.65,Wunderground v.1.15,2013-01-29 20:24:00,
2013-01-29 12:29:00,36.6,30.7,30.30,SSE,158,1.0,1.0,79,0.08,,,0.66,Wunderground v.1.15,2013-01-29 20:29:00,
2013-01-29 12:34:00,36.4,30.5,30.30,NNE,31,1.0,3.0,79,0.08,,,0.67,Wunderground v.1.15,2013-01-29 20:34:00,
2013-01-29 12:39:00,36.0,30.1,30.30,ENE,72,1.0,3.0,79,0.09,,,0.67,Wunderground v.1.15,2013-01-29 20:39:00,
2013-01-29 12:44:00,37.3,31.4,30.30,NNE,25,1.0,1.0,79,0.10,,,0.68,Wunderground v.1.15,2013-01-29 20:44:00,
2013-01-29 12:49:00,37.2,31.3,30.30,North,5,1.0,3.0,79,0.14,,,0.70,Wunderground v.1.15,2013-01-29 20:49:00,
2013-01-29 12:54:00,37.2,31.3,30.30,NE,49,1.0,3.0,79,0.13,,,0.71,Wunderground v.1.15,2013-01-29 20:54:00,
2013-01-29 12:59:00,37.5,31.6,30.30,NE,42,1.0,3.0,79,0.15,,,0.72,Wunderground v.1.15,2013-01-29 20:59:00,
2013-01-29 13:04:00,37.2,31.3,30.30,NE,40,1.0,3.0,79,0.14,,,0.73,Wunderground v.1.15,2013-01-29 21:04:00,
2013-01-29 13:09:00,36.8,30.9,30.30,NE,39,1.0,1.0,79,0.14,,,0.74,Wunderground v.1.15,2013-01-29 21:09:00,
2013-01-29 13:14:00,36.7,30.8,30.30,East,84,0.0,3.0,79,0.12,,,0.75,Wunderground v.1.15,2013-01-29 21:14:00,
2013-01-29 13:19:00,36.7,30.8,30.30,NNE,32,0.0,3.0,79,0.12,,,0.76,Wunderground v.1.15,2013-01-29 21:19:00,
2013-01-29 13:24:00,36.4,30.5,30.30,NNE,32,0.0,3.0,79,0.15,,,0.77,Wunderground v.1.15,2013-01-29 21:24:00,
2013-01-29 13:29:00,36.3,30.4,30.30,NNE,31,0.0,3.0,79,0.13,,,0.78,Wunderground v.1.15,2013-01-29 21:29:00,
2013-01-29 13:34:00,36.3,30.4,30.30,NNE,31,0.0,3.0,79,0.15,,,0.80,Wunderground v.1.15,2013-01-29 21:34:00,
2013-01-29 13:39:00,36.3,30.4,30.30,NNE,32,0.0,3.0,79,0.16,,,0.81,Wunderground v.1.15,2013-01-29 21:39:00,
2013-01-29 13:44:00,36.4,30.5,30.30,NNE,31,1.0,3.0,79,0.21,,,0.83,Wunderground v.1.15,2013-01-29 21:44:00,
2013-01-29 13:49:00,36.2,30.3,30.31,NNE,32,1.0,1.0,79,0.21,,,0.84,Wunderground v.1.15,2013-01-29 21:49:00,
2013-01-29 13:54:00,36.1,30.2,30.31,NNE,32,0.0,3.0,79,0.20,,,0.86,Wunderground v.1.15,2013-01-29 21:54:00,
2013-01-29 13:59:00,36.3,30.4,30.31,NNE,32,0.0,3.0,79,0.20,,,0.88,Wunderground v.1.15,2013-01-29 21:59:00,
2013-01-29 14:04:00,36.1,30.2,30.30,NNE,31,0.0,3.0,79,0.21,,,0.89,Wunderground v.1.15,2013-01-29 22:04:00,
2013-01-29 14:09:00,35.9,30.0,30.30,NNE,29,0.0,3.0,79,0.20,,,0.91,Wunderground v.1.15,2013-01-29 22:09:00,
2013-01-29 14:14:00,36.0,30.1,30.31,NNE,27,0.0,3.0,79,0.21,,,0.93,Wunderground v.1.15,2013-01-29 22:14:00,
2013-01-29 14:19:00,36.0,30.1,30.31,NE,52,1.0,3.0,79,0.20,,,0.94,Wunderground v.1.15,2013-01-29 22:19:00,
2013-01-29 14:24:00,35.9,30.0,30.30,NE,39,1.0,3.0,79,0.18,,,0.96,Wunderground v.1.15,2013-01-29 22:24:00,
2013-01-29 14:29:00,36.0,30.1,30.31,NE,37,1.0,1.0,79,0.15,,,0.97,Wunderground v.1.15,2013-01-29 22:29:00,
2013-01-29 14:34:00,36.3,30.4,30.31,NNW,333,0.0,3.0,79,0.18,,,0.99,Wunderground v.1.15,2013-01-29 22:34:00,
2013-01-29 14:39:00,36.4,30.5,30.31,NNW,333,0.0,3.0,79,0.20,,,1.01,Wunderground v.1.15,2013-01-29 22:39:00,
2013-01-29 14:44:00,36.5,30.6,30.31,NE,42,0.0,3.0,79,0.15,,,1.02,Wunderground v.1.15,2013-01-29 22:44:00,
2013-01-29 14:54:00,36.1,30.2,30.30,NNE,31,1.0,3.0,79,0.13,,,1.04,Wunderground v.1.15,2013-01-29 22:54:00,
2013-01-29 14:59:00,36.3,30.4,30.31,NNE,31,1.0,3.0,79,0.13,,,1.05,Wunderground v.1.15,2013-01-29 22:59:00,
2013-01-29 15:04:00,36.3,30.4,30.31,NNE,32,1.0,3.0,79,0.14,,,1.06,Wunderground v.1.15,2013-01-29 23:04:00,
2013-01-29 15:09:00,36.1,30.2,30.30,NNE,32,1.0,3.0,79,0.14,,,1.08,Wunderground v.1.15,2013-01-29 23:09:00,
2013-01-29 15:14:00,36.4,30.5,30.31,NNE,31,1.0,3.0,79,0.19,,,1.09,Wunderground v.1.15,2013-01-29 23:14:00,
2013-01-29 15:19:00,36.3,30.4,30.31,NNE,32,1.0,3.0,79,0.20,,,1.11,Wunderground v.1.15,2013-01-29 23:19:00,
2013-01-29 15:24:00,36.4,30.5,30.31,NNE,32,1.0,3.0,79,0.24,,,1.13,Wunderground v.1.15,2013-01-29 23:24:00,
2013-01-29 15:29:00,36.4,30.5,30.31,NNE,30,1.0,3.0,79,0.24,,,1.15,Wunderground v.1.15,2013-01-29 23:29:00,
2013-01-29 15:34:00,36.3,30.4,30.31,NNE,30,1.0,3.0,79,0.23,,,1.17,Wunderground v.1.15,2013-01-29 23:34:00,
2013-01-29 15:39:00,36.5,30.6,30.32,North,359,1.0,3.0,79,0.21,,,1.19,Wunderground v.1.15,2013-01-29 23:39:00,
2013-01-29 15:44:00,36.9,31.0,30.31,NE,45,1.0,3.0,79,0.22,,,1.20,Wunderground v.1.15,2013-01-29 23:44:00,
2013-01-29 15:49:00,37.1,31.2,30.31,NW,326,1.0,3.0,79,0.24,,,1.22,Wunderground v.1.15,2013-01-29 23:49:00,
2013-01-29 15:54:00,37.4,31.5,30.32,NNE,30,1.0,3.0,79,0.24,,,1.24,Wunderground v.1.15,2013-01-29 23:54:00,
2013-01-29 15:59:00,37.1,31.2,30.32,ESE,122,0.0,3.0,79,0.24,,,1.26,Wunderground v.1.15,2013-01-29 23:59:00,
2013-01-29 16:04:00,37.5,31.6,30.32,ESE,121,0.0,3.0,79,0.22,,,1.28,Wunderground v.1.15,2013-01-30 00:04:00,
2013-01-29 16:09:00,37.1,31.2,30.31,North,8,0.0,3.0,79,0.17,,,1.30,Wunderground v.1.15,2013-01-30 00:09:00,
2013-01-29 16:19:00,37.8,31.9,30.32,WNW,287,0.0,3.0,79,0.10,,,1.31,Wunderground v.1.15,2013-01-30 00:19:00,
2013-01-29 16:24:00,37.9,32.0,30.32,North,9,1.0,3.0,79,0.10,,,1.32,Wunderground v.1.15,2013-01-30 00:24:00,
2013-01-29 16:29:00,37.9,32.0,30.32,NNE,20,1.0,3.0,79,0.15,,,1.34,Wunderground v.1.15,2013-01-30 00:29:00,
2013-01-29 16:34:00,37.7,31.8,30.32,NW,312,1.0,3.0,79,0.12,,,1.35,Wunderground v.1.15,2013-01-30 00:34:00,
2013-01-29 16:39:00,37.8,31.9,30.32,NE,44,1.0,3.0,79,0.13,,,1.36,Wunderground v.1.15,2013-01-30 00:39:00,
2013-01-29 16:44:00,37.9,32.0,30.31,NE,40,1.0,3.0,79,0.10,,,1.37,Wunderground v.1.15,2013-01-30 00:44:00,
2013-01-29 16:49:00,37.8,31.9,30.32,NNW,348,1.0,1.0,79,0.10,,,1.37,Wunderground v.1.15,2013-01-30 00:49:00,
2013-01-29 16:54:00,37.9,32.0,30.32,NNE,29,1.0,3.0,79,0.09,,,1.38,Wunderground v.1.15,2013-01-30 00:54:00,
2013-01-29 16:59:00,37.8,31.9,30.32,NNW,333,0.0,3.0,79,0.07,,,1.38,Wunderground v.1.15,2013-01-30 00:59:00,
2013-01-29 17:04:00,37.7,31.8,30.32,NE,47,1.0,3.0,79,0.07,,,1.39,Wunderground v.1.15,2013-01-30 01:04:00,
2013-01-29 17:14:00,37.3,31.4,30.32,NNW,338,0.0,3.0,79,0.07,,,1.40,Wunderground v.1.15,2013-01-30 01:14:00,
2013-01-29 17:19:00,37.4,31.5,30.32,NW,321,1.0,3.0,79,0.06,,,1.41,Wunderground v.1.15,2013-01-30 01:19:00,
2013-01-29 17:24:00,37.5,31.6,30.32,NNW,336,1.0,3.0,79,0.06,,,1.41,Wunderground v.1.15,2013-01-30 01:24:00,
2013-01-29 17:29:00,37.6,31.7,30.32,NNW,347,0.0,3.0,79,0.07,,,1.42,Wunderground v.1.15,2013-01-30 01:29:00,
2013-01-29 17:34:00,37.4,31.5,30.32,NNE,19,1.0,3.0,79,0.07,,,1.42,Wunderground v.1.15,2013-01-30 01:34:00,
2013-01-29 17:39:00,37.5,31.6,30.32,West,266,1.0,1.0,79,0.05,,,1.43,Wunderground v.1.15,2013-01-30 01:39:00,
2013-01-29 17:44:00,37.5,31.6,30.32,ENE,57,0.0,3.0,79,0.05,,,1.43,Wunderground v.1.15,2013-01-30 01:44:00,
2013-01-29 17:49:00,37.5,31.6,30.32,NE,54,0.0,3.0,79,0.05,,,1.44,Wunderground v.1.15,2013-01-30 01:49:00,
2013-01-29 17:54:00,37.3,31.4,30.33,NE,54,0.0,3.0,79,0.05,,,1.44,Wunderground v.1.15,2013-01-30 01:54:00,
2013-01-29 18:04:00,37.3,31.4,30.32,NE,54,0.0,3.0,79,0.10,,,1.46,Wunderground v.1.15,2013-01-30 02:04:00,
2013-01-29 18:09:00,37.1,31.2,30.32,NE,54,0.0,3.0,79,0.10,,,1.47,Wunderground v.1.15,2013-01-30 02:09:00,
2013-01-29 18:14:00,36.9,31.0,30.32,NE,54,0.0,3.0,79,0.16,,,1.48,Wunderground v.1.15,2013-01-30 02:14:00,
2013-01-29 18:19:00,36.7,31.1,30.32,NE,54,0.0,3.0,80,0.17,,,1.50,Wunderground v.1.15,2013-01-30 02:19:00,
2013-01-29 18:24:00,36.7,31.1,30.32,NE,41,0.0,3.0,80,0.15,,,1.51,Wunderground v.1.15,2013-01-30 02:24:00,
2013-01-29 18:29:00,37.1,31.5,30.32,NNW,340,0.0,3.0,80,0.16,,,1.52,Wunderground v.1.15,2013-01-30 02:29:00,
2013-01-29 18:34:00,37.3,31.7,30.32,NNE,13,0.0,3.0,80,0.18,,,1.54,Wunderground v.1.15,2013-01-30 02:34:00,
2013-01-29 18:39:00,37.1,31.5,30.32,NNE,12,1.0,3.0,80,0.18,,,1.55,Wunderground v.1.15,2013-01-30 02:39:00,
2013-01-29 18:44:00,37.7,32.1,30.32,WSW,242,1.0,3.0,80,0.14,,,1.56,Wunderground v.1.15,2013-01-30 02:44:00,
2013-01-29 18:49:00,37.9,32.3,30.32,NNE,16,1.0,3.0,80,0.14,,,1.57,Wunderground v.1.15,2013-01-30 02:49:00,
2013-01-29 18:54:00,37.7,31.8,30.33,North,360,0.0,3.0,79,0.17,,,1.59,Wunderground v.1.15,2013-01-30 02:54:00,
2013-01-29 19:04:00,37.6,32.0,30.33,West,278,0.0,3.0,80,0.14,,,1.61,Wunderground v.1.15,2013-01-30 03:04:00,
2013-01-29 19:09:00,37.7,32.1,30.33,North,4,1.0,1.0,80,0.13,,,1.62,Wunderground v.1.15,2013-01-30 03:09:00,
2013-01-29 19:14:00,37.6,32.0,30.33,NNE,25,0.0,3.0,80,0.15,,,1.64,Wunderground v.1.15,2013-01-30 03:14:00,
2013-01-29 19:19:00,37.5,31.9,30.33,NNE,22,0.0,3.0,80,0.15,,,1.65,Wunderground v.1.15,2013-01-30 03:19:00,
2013-01-29 19:24:00,37.5,31.9,30.33,NNE,29,0.0,3.0,80,0.16,,,1.66,Wunderground v.1.15,2013-01-30 03:24:00,
2013-01-29 19:29:00,37.7,32.1,30.33,NW,317,0.0,3.0,80,0.13,,,1.67,Wunderground v.1.15,2013-01-30 03:29:00,
2013-01-29 19:34:00,37.7,32.1,30.33,NNE,13,0.0,3.0,80,0.12,,,1.68,Wunderground v.1.15,2013-01-30 03:34:00,
2013-01-29 19:39:00,37.8,32.2,30.33,NW,326,0.0,3.0,80,0.12,,,1.69,Wunderground v.1.15,2013-01-30 03:39:00,
2013-01-29 19:44:00,37.9,32.3,30.33,NNW,338,0.0,3.0,80,0.14,,,1.70,Wunderground v.1.15,2013-01-30 03:44:00,
2013-01-29 19:49:00,37.8,32.2,30.33,East,96,0.0,3.0,80,0.12,,,1.71,Wunderground v.1.15,2013-01-30 03:49:00,
2013-01-29 19:54:00,37.9,32.3,30.33,WNW,292,0.0,3.0,80,0.12,,,1.72,Wunderground v.1.15,2013-01-30 03:54:00,
2013-01-29 19:59:00,37.9,32.3,30.33,NE,50,0.0,3.0,80,0.12,,,1.73,Wunderground v.1.15,2013-01-30 03:59:00,
2013-01-29 20:04:00,37.9,32.3,30.32,North,10,0.0,3.0,80,0.11,,,1.74,Wunderground v.1.15,2013-01-30 04:04:00,
2013-01-29 20:09:00,37.9,32.3,30.33,NNW,338,0.0,3.0,80,0.10,,,1.75,Wunderground v.1.15,2013-01-30 04:09:00,
2013-01-29 20:14:00,37.9,32.3,30.32,WSW,250,0.0,3.0,80,0.09,,,1.76,Wunderground v.1.15,2013-01-30 04:14:00,
2013-01-29 20:19:00,37.8,32.2,30.32,WSW,257,0.0,3.0,80,0.09,,,1.76,Wunderground v.1.15,2013-01-30 04:19:00,
2013-01-29 20:24:00,37.7,32.1,30.32,NNW,328,1.0,3.0,80,0.10,,,1.77,Wunderground v.1.15,2013-01-30 04:24:00,
2013-01-29 20:29:00,37.7,32.1,30.32,West,281,1.0,1.0,80,0.09,,,1.78,Wunderground v.1.15,2013-01-30 04:29:00,
2013-01-29 20:34:00,37.6,32.0,30.32,WNW,283,0.0,3.0,80,0.09,,,1.79,Wunderground v.1.15,2013-01-30 04:34:00,
2013-01-29 20:39:00,37.7,32.1,30.32,SW,225,0.0,3.0,80,0.09,,,1.79,Wunderground v.1.15,2013-01-30 04:39:00,
2013-01-29 20:44:00,37.7,32.1,30.32,NNW,340,1.0,3.0,80,0.09,,,1.80,Wunderground v.1.15,2013-01-30 04:44:00,
2013-01-29 20:49:00,37.7,32.1,30.32,North,7,1.0,3.0,80,0.07,,,1.81,Wunderground v.1.15,2013-01-30 04:49:00,
2013-01-29 20:54:00,37.7,32.1,30.32,East,85,1.0,3.0,80,0.07,,,1.81,Wunderground v.1.15,2013-01-30 04:54:00,
2013-01-29 20:59:00,37.7,32.1,30.32,NNE,16,0.0,3.0,80,0.07,,,1.82,Wunderground v.1.15,2013-01-30 04:59:00,
2013-01-29 21:05:00,37.6,32.0,30.32,NNE,13,0.0,3.0,80,0.07,,,1.82,Wunderground v.1.15,2013-01-30 05:05:00,
2013-01-29 21:09:00,37.6,32.0,30.32,East,86,0.0,3.0,80,0.07,,,1.83,Wunderground v.1.15,2013-01-30 05:09:00,
2013-01-29 21:14:00,37.7,32.1,30.32,NNE,21,0.0,3.0,80,0.08,,,1.84,Wunderground v.1.15,2013-01-30 05:14:00,
2013-01-29 21:19:00,37.8,32.2,30.31,ENE,75,0.0,3.0,80,0.08,,,1.84,Wunderground v.1.15,2013-01-30 05:19:00,
2013-01-29 21:24:00,37.9,32.3,30.31,WNW,293,1.0,3.0,80,0.07,,,1.85,Wunderground v.1.15,2013-01-30 05:24:00,
2013-01-29 21:29:00,37.9,32.3,30.32,East,101,1.0,1.0,80,0.08,,,1.86,Wunderground v.1.15,2013-01-30 05:29:00,
2013-01-29 21:34:00,37.6,32.0,30.32,NW,318,1.0,3.0,80,0.08,,,1.86,Wunderground v.1.15,2013-01-30 05:34:00,
2013-01-29 21:39:00,37.5,31.9,30.31,NNE,33,1.0,1.0,80,0.06,,,1.87,Wunderground v.1.15,2013-01-30 05:39:00,
2013-01-29 21:44:00,37.6,32.0,30.31,North,1,1.0,3.0,80,0.06,,,1.87,Wunderground v.1.15,2013-01-30 05:44:00,
2013-01-29 21:49:00,37.8,32.2,30.31,East,91,1.0,5.0,80,0.10,,,1.88,Wunderground v.1.15,2013-01-30 05:49:00,
2013-01-29 21:54:00,37.9,32.3,30.31,East,88,1.0,5.0,80,0.14,,,1.90,Wunderground v.1.15,2013-01-30 05:54:00,
2013-01-29 21:59:00,37.9,32.3,30.31,North,6,1.0,1.0,80,0.12,,,1.91,Wunderground v.1.15,2013-01-30 05:59:00,
2013-01-29 22:04:00,37.9,32.3,30.31,NNW,334,1.0,3.0,80,0.11,,,1.91,Wunderground v.1.15,2013-01-30 06:04:00,
2013-01-29 22:09:00,37.8,32.2,30.31,NNE,12,1.0,3.0,80,0.08,,,1.92,Wunderground v.1.15,2013-01-30 06:09:00,
2013-01-29 22:14:00,38.0,32.4,30.31,NNE,13,1.0,3.0,80,0.10,,,1.93,Wunderground v.1.15,2013-01-30 06:14:00,
2013-01-29 22:19:00,37.8,32.2,30.31,ENE,62,1.0,4.0,80,0.13,,,1.94,Wunderground v.1.15,2013-01-30 06:19:00,
2013-01-29 22:24:00,37.9,32.3,30.31,NNE,16,1.0,4.0,80,0.09,,,1.95,Wunderground v.1.15,2013-01-30 06:24:00,
2013-01-29 22:29:00,37.9,32.3,30.31,NNE,18,1.0,3.0,80,0.09,,,1.95,Wunderground v.1.15,2013-01-30 06:29:00,
2013-01-29 22:34:00,37.7,32.1,30.31,NNW,330,1.0,3.0,80,0.06,,,1.95,Wunderground v.1.15,2013-01-30 06:34:00,
2013-01-29 22:39:00,37.7,32.1,30.32,NW,304,1.0,3.0,80,0.05,,,1.96,Wunderground v.1.15,2013-01-30 06:39:00,
2013-01-29 22:44:00,37.9,32.3,30.32,NW,320,2.0,3.0,80,0.07,,,1.96,Wunderground v.1.15,2013-01-30 06:44:00,
2013-01-29 22:49:00,37.9,32.3,30.32,NNE,30,1.0,3.0,80,0.07,,,1.97,Wunderground v.1.15,2013-01-30 06:49:00,
2013-01-29 22:54:00,37.9,32.3,30.32,NE,46,1.0,3.0,80,0.09,,,1.98,Wunderground v.1.15,2013-01-30 06:54:00,
2013-01-29 22:59:00,37.9,32.3,30.32,NE,41,1.0,3.0,80,0.08,,,1.99,Wunderground v.1.15,2013-01-30 06:59:00,
2013-01-29 23:04:00,37.9,32.6,30.32,West,277,1.0,3.0,81,0.08,,,1.99,Wunderground v.1.15,2013-01-30 07:04:00,
2013-01-29 23:09:00,37.8,32.5,30.32,East,86,1.0,1.0,81,0.07,,,2.00,Wunderground v.1.15,2013-01-30 07:09:00,
2013-01-29 23:14:00,37.8,32.5,30.32,NNW,332,1.0,3.0,81,0.08,,,2.01,Wunderground v.1.15,2013-01-30 07:14:00,
2013-01-29 23:19:00,37.8,32.5,30.33,SE,132,1.0,1.0,81,0.08,,,2.01,Wunderground v.1.15,2013-01-30 07:19:00,
2013-01-29 23:24:00,37.8,32.5,30.32,ESE,108,1.0,3.0,81,0.07,,,2.02,Wunderground v.1.15,2013-01-30 07:24:00,
2013-01-29 23:29:00,38.0,32.7,30.33,NE,44,1.0,3.0,81,0.07,,,2.02,Wunderground v.1.15,2013-01-30 07:29:00,
2013-01-29 23:34:00,37.7,32.1,30.33,North,349,2.0,3.0,80,0.08,,,2.03,Wunderground v.1.15,2013-01-30 07:34:00,
2013-01-29 23:39:00,37.7,32.4,30.33,North,360,1.0,3.0,81,0.09,,,2.04,Wunderground v.1.15,2013-01-30 07:39:00,
2013-01-29 23:44:00,37.8,32.5,30.33,NE,40,1.0,3.0,81,0.08,,,2.05,Wunderground v.1.15,2013-01-30 07:44:00,
2013-01-29 23:49:00,37.8,32.5,30.33,North,11,1.0,3.0,81,0.08,,,2.05,Wunderground v.1.15,2013-01-30 07:49:00,
2013-01-29 23:54:00,37.7,32.4,30.33,North,353,1.0,3.0,81,0.09,,,2.06,Wunderground v.1.15,2013-01-30 07:54:00,
2013-01-29 23:59:00,37.6,32.3,30.33,NE,34,1.0,3.0,81,0.11,,,2.07,Wunderground v.1.15,2013-01-30 07:59:00,